Volver al catálogo

ONEWEB-0055

ActivoComunicacionesPO
NORAD 45443·PAYLOAD·🇬🇧 United Kingdom

Lanzado Mar 21, 2020 desde Baikonur Cosmodrome

Loading…

Próximos Pases (próximas 24 horas)

TLE

ActualizadoSource: CelesTrak SupGP

Época: Sep 14, 2026, 23:55 UTC

1 45443C 20020V   26257.99701806 -.00000326  00000+0 -92025-3 0  2576
2 45443  87.8981   3.2167 0001799 104.1276 359.8712 13.11417822    15

Sigue ONEWEB-0055 en tiempo real con AllMySat

Download on the App Store